Location: Unspecified
(0.0000°N, 0.0000°E)
Time: 01:25:47
(UTC+00:00)

SR - Pass Details

Date: 26 November 2019
Orbit: 573 x 882 km, 66.7° (Epoch: 11 December)

Event Time Altitude Azimuth Distance (km) Brightness Sun altitude
Rises 00:28:05 0° 313° (NW) 3,316 - -66.9°
Reaches altitude 10° 00:31:16 10° 295° (WNW) 2,331 - -66.5°
Maximum altitude 00:34:55 19° 252° (WSW) 1,741 - -66.1°
Drops below altitude 10° 00:38:23 10° 208° (SSW) 2,193 - -65.7°
Sets 00:41:17 0° 189° (S) 3,051 - -65.3°
